SCP
0 1 1 0 0 0 0 1 1 1 1 1 1 1 1 1 1 1 1 1 1 1 1 1 0 0 0 0 0 0 0 0 0 0 0 0 0 0 0 0 0 0 0
0 1 1 0 0 0 0 1 1 1 1 1 1 1 1 1 1 1 1 1 1 1 1 1 0 0 0 0 0 0 0 0 0 0 0 0 0 0 0 0 0 0 0
0 0 0 0 0 0 0 1 1 1 1 1 1 1 1 1 1 1 1 1 1 1 0 0 0 0 0 0 0 0 0 0 0 0 0 0 0 0 0 0 0 0 0
0 0 0 0 0 0 0 0 1 1 1 1 1 1 1 1 1 1 1 1 0 0 0 0 0 0 0 0 0 0 0 0 0 0 0 0 0 0 0 0 0 0 0
0 0 1 1 1 0 0 0 1 1 1 1 1 1 1 1 1 1 0 0 0 0 0 0 0 0 0 0 0 0 0 0 0 0 0 0 0 0 0 0 0 0 0
0 0 1 1 1 0 0 0 0 1 1 1 1 1 1 1 0 0 0 0 0 0 0 0 0 0 0 0 0 0 0 0 0 0 0 0 0 0 0 0 0 0 0
0 0 1 1 1 0 0 0 0 0 0 1 1 0 0 0 0 0 0 0 0 0 0 0 0 0 0 0 0 0 0 0 0 0 0 0 0 1 1 0 0 0 0
0 0 1 1 1 1 0 0 0 0 0 0 0 0 0 0 0 0 0 0 0 0 0 0 0 0 0 0 0 0 0 0 0 0 0 0 1 1 1 1 1 0 0
0 0 1 1 1 1 0 0 0 0 1 1 0 0 0 0 0 0 0 0 0 0 0 0 0 0 0 0 0 0 0 0 0 0 0 0 1 1 1 1 1 0 0
0 0 0 1 1 0 0 0 0 0 1 0 0 0 0 0 0 0 0 0 0 0 0 0 0 0 0 0 0 0 0 0 0 0 0 0 0 1 0 0 0 0 0
0 0 0 1 0 0 0 0 0 0 0 0 0 0 0 0 0 0 0 0 0 0 0 0 0 0 0 0 0 0 0 0 0 0 0 0 1 1 0 0 0 0 0
1 1 1 0 0 0 0 0 0 0 0 0 0 0 0 0 0 0 1 1 0 0 0 0 0 0 0 0 0 0 0 0 0 0 0 1 1 1 1 1 0 0 0
1 1 1 1 0 0 0 0 0 0 0 0 0 1 1 1 1 1 1 0 0 0 0 0 0 0 0 0 0 0 0 0 0 0 0 1 1 1 1 1 1 1 0
1 1 1 1 1 1 1 0 0 0 0 1 1 1 1 1 1 1 1 1 0 0 0 0 0 0 0 0 0 0 0 0 0 0 1 1 1 1 1 1 1 1 1
1 1 1 1 1 1 1 1 1 1 1 1 1 1 1 1 1 1 1 1 1 1 1 1 0 0 0 0 0 0 0 0 0 0 0 1 1 1 1 1 1 1 1
1 1 1 1 1 1 1 1 1 1 1 1 1 1 1 1 1 1 1 1 1 1 1 1 1 0 0 0 0 0 0 0 0 0 0 0 1 1 1 1 1 1 1
2 2 2 2 2 2 2 2 1 1 1 1 1 2 2 2 2 2 2 2 2 2 2 1 1 1 1 1 0 0 0 0 0 0 0 0 0 1 1 1 1 1 1
3 3 3 2 2 2 2 3 3 3 2 2 2 2 3 3 3 3 3 3 3 3 2 1 1 1 1 1 1 0 0 0 0 0 0 0 0 0 1 1 1 1 1
4 4 3 3 3 3 4 4 4 3 3 3 3 3 4 4 3 4 4 4 3 3 2 2 1 1 1 1 0 0 0 0 0 0 0 0 0 0 0 0 0 0 0
4 4 4 4 4 5 5 5 4 4 4 4 4 4 4 4 4 4 4 4 4 3 3 2 1 1 0 0 0 0 0 0 0 0 0 0 0 0 0 0 0 0 0
5 5 6 6 6 7 6 6 6 5 5 5 5 5 5 4 4 3 3 3 3 3 2 1 1 0 0 0 0 0 0 0 0 0 0 0 0 0 0 0 0 0 0
5 6 7 8 8 8 8 7 7 6 5 4 4 4 4 3 3 2 2 1 1 1 1 0 0 0 0 0 0 0 0 0 0 0 0 0 0 0 0 0 0 0 0
5 6 7 8 8 8 9 8 8 6 4 3 2 2 2 1 1 1 0 0 0 0 0 0 0 0 0 0 0 0 0 0 0 0 0 0 0 0 0 0 0 0 0
5 6 8 8 8 8 9 9 8 7 5 3 1 0 0 0 0 0 0 0 0 0 0 0 0 0 0 0 0 0 0 0 0 0 0 0 0 0 0 0 0 0 0
7 8 9 10 9 9 9 9 9 7 5 3 1 0 0 0 0 0 0 0 0 0 0 0 0 0 0 0 0 0 0 0 0 0 0 0 0 0 0 0 0 0 0
9 9 10 11 10 9 9 9 9 7 5 2 1 0 0 0 0 0 0 0 0 0 0 0 0 0 0 0 0 0 0 0 0 0 0 0 0 0 0 0 0 0 0
Wind_Speed
14 16 16 12 10 8 9 12 14 14 15 15 14 13 13 12 11 11 10 10 11 11 12 12 12 12 11 11 10 10 9 8 8 8 9 9 8 9 10 9 7 9 11
16 17 17 12 11 10 10 11 13 14 15 15 15 13 13 12 11 11 10 10 11 11 12 11 11 11 10 9 9 8 8 7 6 6 7 9 8 8 8 5 5 10 9
16 17 18 13 12 12 11 11 13 14 15 15 14 14 12 12 11 11 10 10 10 11 11 10 10 10 9 8 7 6 6 5 4 4 7 7 10 8 7 7 9 10 8
16 16 17 16 13 13 13 12 12 14 14 14 13 13 12 12 11 10 10 10 10 9 9 9 9 9 8 7 6 5 4 3 3 5 7 5 8 10 7 8 8 8 7
15 15 17 17 14 14 14 13 13 13 13 13 13 12 11 11 10 9 9 9 8 8 8 8 8 8 6 5 4 3 2 1 3 10 2 5 7 9 7 8 8 8 7
16 15 18 16 15 14 14 14 13 13 13 13 12 11 10 9 9 8 8 8 7 6 6 7 7 7 5 4 4 3 2 1 8 6 4 4 7 8 7 7 8 8 8
15 15 18 15 14 14 14 13 12 12 11 11 11 10 9 8 7 7 7 6 6 6 5 6 7 6 5 4 4 4 3 4 9 4 5 4 8 7 5 6 6 7 8
14 14 17 16 15 15 15 14 12 11 11 10 10 9 9 8 7 6 6 6 5 5 5 6 7 6 4 3 4 4 4 8 6 4 4 6 10 5 3 3 3 4 5
14 14 15 17 16 15 13 13 12 11 10 10 9 9 9 9 8 7 6 5 4 5 5 6 6 5 4 3 3 4 4 6 8 4 4 6 8 5 4 4 3 2 1
13 13 14 15 16 16 15 14 13 11 10 10 10 11 10 9 8 7 8 6 4 4 5 5 5 5 4 3 3 2 2 7 4 5 4 9 7 4 4 4 4 4 3
13 12 13 14 14 14 14 14 14 12 10 11 11 11 10 10 11 10 8 8 5 5 5 5 5 4 4 6 3 1 5 5 4 1 5 10 5 3 4 4 3 3 2
15 15 14 14 14 13 11 12 11 11 11 11 10 12 10 7 6 6 11 7 5 5 5 6 5 6 8 5 7 7 3 2 1 3 7 8 4 3 3 3 2 2 1
16 15 14 13 13 12 9 9 7 7 8 10 10 10 7 6 5 5 5 8 7 8 7 8 8 4 2 1 0 2 2 1 1 2 8 7 4 2 2 2 1 1 1
16 17 15 14 12 12 10 8 7 7 6 7 9 9 7 5 5 4 4 4 4 4 3 4 3 3 2 3 2 2 2 1 1 2 8 8 6 4 2 1 0 1 2
15 16 15 14 13 11 9 7 8 7 7 7 6 8 7 6 5 5 3 3 3 3 4 4 3 3 3 4 2 2 3 3 3 2 6 11 10 7 5 3 2 2 2
16 15 15 15 14 12 10 8 7 7 6 6 6 8 8 6 4 4 4 3 2 2 1 1 2 3 2 2 3 3 2 3 4 3 3 8 12 11 9 8 6 4 3
16 15 14 14 14 13 12 10 7 6 6 5 5 6 7 6 5 4 3 3 2 2 3 2 3 2 2 3 4 4 4 5 4 4 3 2 5 12 12 11 10 10 8
16 15 15 13 15 14 11 9 6 5 5 4 4 4 6 6 5 4 3 3 4 4 4 4 4 4 4 3 3 4 3 2 3 2 1 1 2 2 9 11 11 11 10
15 15 15 15 15 14 12 9 7 5 4 3 2 2 3 4 4 4 4 4 5 5 4 4 4 3 4 3 2 2 2 2 1 1 1 2 2 1 1 8 8 9 9
15 14 15 15 14 13 11 8 6 5 3 1 2 2 2 2 4 5 5 6 5 5 4 4 5 4 3 2 1 1 1 2 2 1 2 1 1 1 1 2 2 5 5
15 15 15 15 14 12 9 9 8 6 4 4 3 4 4 4 5 5 6 6 5 4 4 4 4 4 3 2 2 2 2 2 2 2 3 2 1 1 2 3 5 5 2
16 16 16 15 14 13 10 8 6 7 5 5 4 4 4 5 5 5 7 6 5 4 4 4 3 2 2 1 2 2 3 5 5 4 3 4 3 4 5 5 5 6 7
16 16 14 15 14 13 12 9 9 7 5 4 4 3 4 5 5 4 5 6 5 4 4 4 4 3 3 2 1 3 4 5 2 6 5 5 5 5 7 6 8 8 9
12 13 13 13 13 13 13 12 12 8 7 5 5 5 6 6 6 5 5 6 5 5 5 5 4 3 3 3 3 0 3 5 5 3 6 7 7 8 9 8 9 9 10
5 8 10 12 12 12 12 13 11 9 8 7 8 9 7 6 7 7 6 6 6 6 6 6 5 3 2 1 2 2 1 2 4 6 7 6 6 7 7 8 8 9 10
8 9 11 13 12 11 11 10 10 12 11 11 10 10 8 6 6 8 8 7 7 7 7 6 5 5 4 3 1 1 2 3 5 6 8 9 9 8 8 7 8 9 8
Wind_Direction
161 149 152 165 159 144 134 134 139 144 146 146 146 143 143 140 135 127 120 115 112 111 110 108 106 104 103 102 104 107 109 109 108 110 113 113 115 118 120 127 151 112 107
154 148 150 159 155 147 137 134 134 137 141 143 144 143 142 140 134 128 123 119 116 116 114 112 109 106 104 103 104 108 112 115 117 122 133 129 117 120 123 119 46 99 123
151 147 153 155 155 151 144 137 134 134 138 141 141 141 141 139 135 131 128 124 122 121 118 115 110 106 103 103 105 108 114 122 128 158 214 158 121 129 133 120 101 116 129
152 152 157 151 156 154 151 145 140 139 139 139 140 141 142 140 138 137 136 133 129 125 119 114 110 107 105 105 104 104 109 128 163 217 221 109 120 127 144 137 132 136 138
153 156 145 154 158 156 156 154 149 146 144 142 143 144 144 143 141 140 140 137 132 126 120 115 111 109 108 103 93 82 69 126 214 243 160 101 100 127 151 153 153 153 152
157 156 146 159 160 158 159 160 157 153 150 148 147 147 146 144 141 141 142 140 139 134 126 118 111 107 103 92 75 50 17 287 240 207 121 132 114 129 156 163 169 169 169
159 157 150 159 161 161 162 163 162 158 155 151 149 147 144 140 140 146 150 153 154 148 133 118 110 104 94 71 47 26 356 300 266 139 135 137 93 117 148 165 174 177 180
160 160 148 159 165 166 168 168 165 162 158 154 150 147 145 145 150 157 163 166 164 154 133 119 113 106 92 59 33 14 348 299 244 123 147 108 88 101 115 134 162 176 187
165 163 158 167 171 172 172 171 168 165 162 157 153 153 156 159 163 167 168 167 160 146 132 122 116 107 91 59 32 12 343 307 270 133 125 88 88 84 72 59 60 79 148
170 169 167 174 175 177 178 175 172 169 167 164 165 168 167 168 175 177 186 163 159 147 136 124 114 108 105 85 50 15 302 269 238 151 132 95 91 83 70 57 52 49 49
176 175 176 178 180 185 182 169 177 176 175 175 179 177 184 193 185 184 180 142 164 157 141 124 114 120 170 152 123 220 247 241 151 105 82 85 94 93 89 85 74 63 55
181 185 181 186 182 189 184 170 187 189 181 200 190 183 201 199 196 194 126 149 168 162 156 134 138 187 227 173 155 205 201 202 164 143 90 85 94 101 100 111 112 101 93
183 189 188 187 188 190 185 182 189 194 182 200 198 193 203 195 196 198 168 169 184 190 191 159 193 198 177 80 185 140 79 165 111 119 87 81 90 96 95 112 145 189 219
187 188 192 186 189 197 194 188 191 198 186 196 187 202 194 203 208 193 196 180 184 199 192 201 194 149 148 155 150 116 126 94 63 65 76 68 68 66 55 44 352 257 259
193 191 192 191 187 193 201 201 197 204 197 197 192 199 207 203 207 198 194 187 206 193 189 199 195 149 168 159 133 102 77 63 42 28 99 75 64 61 55 41 23 351 312
195 194 191 192 189 190 196 205 204 207 205 212 200 202 207 215 203 203 191 184 194 206 204 190 144 160 173 111 98 68 29 59 61 359 65 99 76 65 60 56 49 37 14
195 194 193 192 191 191 196 202 204 209 206 217 207 207 208 219 201 197 188 167 140 112 107 108 105 108 102 99 72 53 44 26 41 26 9 356 104 82 66 62 59 54 47
195 192 194 194 190 189 194 196 198 198 203 215 214 207 208 219 202 187 155 130 117 114 114 106 100 94 78 62 52 31 32 36 33 12 347 6 359 106 89 69 62 57 52
198 192 193 197 192 188 186 185 185 177 192 204 209 222 206 205 184 152 125 117 121 114 109 107 98 97 91 75 66 37 2 349 325 20 24 48 67 343 90 107 88 66 52
198 195 194 194 192 184 178 173 169 166 158 118 65 46 68 104 125 125 121 125 123 115 108 102 106 97 95 88 35 29 325 310 286 265 237 155 164 220 323 347 226 115 93
199 196 195 195 186 181 176 172 167 154 117 85 71 75 88 99 117 131 129 129 126 118 119 131 127 127 125 151 185 209 217 245 261 245 255 257 186 269 281 295 297 315 262
203 199 194 193 184 180 174 164 151 122 109 105 90 85 98 110 125 143 141 138 133 130 139 154 156 156 128 171 252 247 234 208 213 222 229 232 261 265 270 266 291 275 286
205 200 195 188 179 174 157 137 123 120 112 108 115 115 117 130 141 148 147 137 141 149 150 156 156 153 139 134 316 276 276 279 192 188 224 242 250 273 279 283 271 275 275
206 195 189 179 169 159 152 147 147 143 137 147 146 142 136 126 122 121 119 117 117 118 123 128 113 125 147 152 144 342 340 344 302 274 211 222 237 256 271 281 284 282 275
177 176 166 151 145 145 145 146 144 144 141 141 139 134 122 106 99 98 101 106 112 109 104 103 106 111 143 154 152 165 177 218 258 281 293 290 268 260 263 266 276 285 286
92 107 115 120 122 128 134 140 143 143 142 140 138 130 117 104 99 104 111 113 111 109 109 110 113 103 82 78 34 298 282 291 295 300 293 288 289 288 289 287 281 278 284